�N����,����,�~����,�C��,���x,�C��,����,���ϕ���,�ő�u�ԕ���,�ő厞����,���˗�,�I�_���x,�n�����x,�ő啗���N��,DTYPE
"20/04/19","00:10",0.0,12.6,79.8,1009.0,273.1,1.8,5.0,251.7,0.00,9.2,13.8,"00:00:02",1
"20/04/19","00:20",0.0,12.7,79.0,1009.0,275.6,2.1,4.2,296.1,0.00,9.2,14.0,"00:11:52",1
"20/04/19","00:30",0.0,12.7,78.6,1009.3,267.4,1.8,4.5,248.5,0.00,9.1,13.9,"00:23:52",1
"20/04/19","00:40",0.0,12.6,78.7,1009.3,287.6,2.0,4.2,314.7,0.00,9.0,13.6,"00:35:20",1
"20/04/19","00:50",0.0,12.5,79.1,1009.5,283.5,1.6,3.3,314.2,0.00,9.0,13.7,"00:43:44",1
"20/04/19","01:00",0.0,12.3,79.7,1009.3,293.8,1.3,2.2,336.9,0.00,8.9,13.8,"00:53:36",1
"20/04/19","01:10",0.0,12.3,80.0,1009.3,289.8,1.6,2.6,309.6,0.00,9.0,13.7,"01:03:12",1
"20/04/19","01:20",0.0,12.3,80.1,1009.3,302.7,1.7,3.6,329.8,0.00,9.0,13.6,"01:17:52",1
"20/04/19","01:30",0.0,12.3,80.2,1009.7,286.9,2.1,2.9,331.4,0.00,9.0,13.7,"01:20:48",1
"20/04/19","01:40",0.0,12.3,80.3,1009.5,293.3,2.3,5.0,288.3,0.00,9.0,13.6,"01:33:28",1
"20/04/19","01:50",0.0,12.2,80.4,1009.5,282.8,2.3,4.3,295.9,0.00,9.0,13.6,"01:47:36",1
"20/04/19","02:00",0.0,12.2,80.6,1009.5,296.3,2.8,4.7,308.9,0.00,9.0,13.7,"01:52:32",1
"20/04/19","02:10",0.0,12.1,81.0,1009.7,291.7,1.7,3.3,259.3,0.00,9.0,13.6,"02:04:56",1
"20/04/19","02:20",0.0,11.9,81.5,1009.3,294.1,1.8,3.7,259.9,0.00,8.9,13.7,"02:19:04",1
"20/04/19","02:30",0.0,12.0,81.6,1009.7,302.0,2.1,4.5,307.5,0.00,9.0,13.6,"02:25:20",1
"20/04/19","02:40",0.0,12.0,81.5,1009.5,302.7,2.5,7.1,330.0,0.00,9.0,13.4,"02:37:20",1
"20/04/19","02:50",0.0,11.9,81.6,1009.5,314.9,2.3,5.9,322.5,0.00,8.9,13.8,"02:41:36",1
"20/04/19","03:00",0.0,11.7,82.2,1009.7,294.6,2.5,4.5,256.8,0.00,8.8,13.4,"02:58:24",1
"20/04/19","03:10",0.0,11.6,82.8,1009.5,291.9,2.2,4.0,297.8,0.00,8.8,13.2,"03:00:08",1
"20/04/19","03:20",0.0,11.5,83.5,1009.5,290.2,2.2,4.3,320.2,0.00,8.8,13.5,"03:16:40",1
"20/04/19","03:30",0.0,11.4,84.1,1009.5,287.4,2.3,5.0,307.9,0.00,8.9,13.5,"03:29:52",1
"20/04/19","03:40",0.0,11.4,84.6,1009.7,281.8,2.6,5.2,301.4,0.00,8.9,13.4,"03:39:04",1
"20/04/19","03:50",0.0,11.3,85.2,1009.7,282.1,2.6,4.3,260.7,0.00,8.9,13.4,"03:49:52",1
"20/04/19","04:00",0.0,11.2,85.7,1009.5,277.1,2.5,4.4,254.9,0.00,8.9,13.3,"03:57:04",1
"20/04/19","04:10",0.0,11.1,86.2,1009.5,286.5,2.2,3.7,304.5,0.00,8.9,13.3,"04:07:12",1
"20/04/19","04:20",0.0,11.2,86.5,1010.0,271.0,2.5,4.9,239.5,0.00,9.1,13.2,"04:17:20",1
"20/04/19","04:30",0.0,11.2,86.7,1009.5,285.4,2.6,5.4,292.9,0.00,9.1,13.3,"04:24:44",1
"20/04/19","04:40",0.0,11.2,87.0,1010.0,279.1,2.3,5.0,308.0,0.00,9.2,13.3,"04:38:48",1
"20/04/19","04:50",0.0,11.1,87.3,1010.0,266.9,2.1,4.0,235.1,0.00,9.1,13.2,"04:49:12",1
"20/04/19","05:00",0.0,11.0,87.7,1010.2,268.6,2.2,5.1,239.8,0.00,9.1,13.3,"04:58:48",1
"20/04/19","05:10",0.0,11.0,88.1,1010.2,262.5,2.1,3.4,229.8,0.00,9.1,13.5,"05:07:20",1
"20/04/19","05:20",0.0,10.9,88.5,1010.2,272.1,2.5,4.7,259.1,0.00,9.1,13.4,"05:15:04",1
"20/04/19","05:30",0.0,10.9,89.0,1010.2,263.1,2.1,4.5,286.5,0.00,9.2,13.1,"05:27:36",1
"20/04/19","05:40",0.0,10.8,89.5,1010.7,269.2,2.0,4.0,292.1,0.00,9.2,13.3,"05:38:00",1
"20/04/19","05:50",0.0,10.9,89.7,1010.7,281.1,2.7,7.2,312.3,0.00,9.3,13.2,"05:46:00",1
"20/04/19","06:00",0.0,11.1,89.8,1010.9,279.6,2.5,5.7,344.9,0.00,9.5,13.2,"05:55:28",1
"20/04/19","06:10",0.0,11.1,89.8,1011.2,281.7,2.3,5.0,307.1,0.00,9.5,13.2,"06:04:00",1
"20/04/19","06:20",0.0,11.2,89.7,1011.4,275.2,2.2,4.0,304.8,0.00,9.6,13.2,"06:14:40",1
"20/04/19","06:30",0.0,11.3,89.9,1011.4,264.8,2.2,4.7,285.5,0.03,9.7,13.0,"06:24:00",1
"20/04/19","06:40",0.0,11.5,89.9,1011.4,274.5,2.2,3.9,272.2,0.05,9.9,13.1,"06:36:08",1
"20/04/19","06:50",0.0,11.7,89.8,1011.4,285.2,2.6,4.3,338.3,0.08,10.1,13.2,"06:44:00",1
"20/04/19","07:00",0.0,11.9,89.2,1011.9,284.1,2.2,4.0,271.7,0.06,10.2,13.2,"06:55:36",1
"20/04/19","07:10",0.0,11.8,88.9,1011.9,278.6,2.2,4.8,336.8,0.06,10.1,13.1,"07:02:16",1
"20/04/19","07:20",0.0,11.9,88.6,1011.9,279.2,2.0,3.4,293.1,0.05,10.1,13.2,"07:17:24",1
"20/04/19","07:30",0.0,11.9,88.4,1011.9,272.8,2.1,3.5,263.4,0.03,10.1,13.1,"07:29:52",1
"20/04/19","07:40",0.0,12.0,88.4,1011.9,275.0,2.2,3.4,244.4,0.06,10.2,13.0,"07:32:24",1
"20/04/19","07:50",0.0,12.2,88.2,1012.1,281.5,2.7,5.0,245.4,0.13,10.3,13.2,"07:42:48",1
"20/04/19","08:00",0.0,12.6,88.0,1011.9,289.0,2.6,4.2,309.0,0.17,10.7,13.4,"07:51:36",1
"20/04/19","08:10",0.0,12.7,87.3,1011.6,283.5,2.7,4.9,284.2,0.15,10.7,13.4,"08:01:36",1
"20/04/19","08:20",0.0,13.3,86.6,1011.9,290.9,2.3,4.7,316.5,0.22,11.2,13.4,"08:13:12",1
"20/04/19","08:30",0.0,13.2,85.3,1011.9,290.4,2.6,4.9,317.1,0.14,10.8,13.4,"08:29:52",1
"20/04/19","08:40",0.0,13.2,84.9,1012.3,292.7,2.3,5.0,320.7,0.12,10.8,13.5,"08:34:00",1
"20/04/19","08:50",0.0,13.0,84.8,1012.3,282.2,2.2,4.1,307.5,0.11,10.5,13.5,"08:43:44",1
"20/04/19","09:00",0.0,12.7,85.3,1012.6,278.0,2.5,5.8,304.0,0.11,10.3,13.2,"08:57:20",1
"20/04/19","09:10",0.0,12.9,86.0,1012.1,288.9,2.5,4.5,295.0,0.16,10.7,13.5,"09:01:12",1
"20/04/19","09:20",0.2,13.3,86.4,1012.1,291.8,2.8,5.7,315.2,0.26,11.1,13.8,"09:18:16",1
"20/04/19","09:30",0.0,14.4,85.5,1012.1,290.7,2.7,4.9,306.9,0.42,12.0,13.7,"09:20:40",1
"20/04/19","09:40",0.0,14.2,84.5,1012.1,294.6,3.0,4.9,301.6,0.31,11.7,13.8,"09:34:16",1
"20/04/19","09:50",0.0,14.1,83.2,1012.1,314.2,3.0,5.7,328.7,0.23,11.3,13.9,"09:44:00",1
"20/04/19","10:00",0.0,13.9,82.9,1012.3,285.5,2.1,3.6,290.7,0.13,11.1,14.0,"09:55:28",1
"20/04/19","10:10",0.0,14.1,83.0,1012.3,277.8,1.8,3.4,305.5,0.21,11.3,14.1,"10:08:48",1
"20/04/19","10:20",0.0,14.6,83.1,1012.1,283.2,1.8,4.0,309.3,0.35,11.8,14.0,"10:12:56",1
"20/04/19","10:30",0.0,15.6,81.9,1012.1,271.3,1.5,3.4,309.6,0.58,12.6,14.2,"10:24:32",1
"20/04/19","10:40",0.0,15.9,79.2,1011.9,304.7,1.6,2.9,338.4,0.23,12.3,14.4,"10:36:16",1
"20/04/19","10:50",0.0,16.0,76.7,1011.9,317.6,1.6,4.3,312.7,0.22,12.0,14.4,"10:44:48",1
"20/04/19","11:00",0.0,15.6,73.9,1011.9,308.4,2.3,4.7,344.6,0.22,11.0,14.4,"10:50:02",1
"20/04/19","11:10",0.0,15.8,72.6,1012.1,328.3,2.1,4.8,348.9,0.20,10.9,14.6,"11:00:16",1
"20/04/19","11:20",0.0,16.2,72.1,1012.3,299.4,1.6,3.5,329.1,0.21,11.2,14.6,"11:19:28",1
"20/04/19","11:30",0.0,15.8,72.0,1012.1,294.1,2.0,3.7,314.5,0.19,10.8,14.8,"11:24:16",1
"20/04/19","11:40",0.0,16.2,72.6,1012.1,301.3,2.5,4.9,310.6,0.40,11.3,14.9,"11:34:40",1
"20/04/19","11:50",0.0,15.9,72.3,1011.9,298.1,2.6,5.4,336.2,0.27,11.0,14.8,"11:44:16",1
"20/04/19","12:00",0.0,16.2,72.4,1011.9,294.5,2.3,5.6,319.4,0.28,11.3,15.0,"11:59:20",1
"20/04/19","12:10",0.0,15.5,71.6,1011.9,0.9,2.3,5.2,355.9,0.15,10.4,15.0,"12:01:36",1
"20/04/19","12:20",0.0,15.6,72.1,1012.1,346.7,2.3,4.1,350.0,0.18,10.6,15.0,"12:19:04",1
"20/04/19","12:30",0.0,16.2,70.1,1011.6,330.6,3.2,7.0,327.8,0.37,10.8,15.2,"12:26:24",1
"20/04/19","12:40",0.0,17.0,69.3,1011.6,313.5,2.6,5.4,330.7,0.42,11.4,15.0,"12:32:16",1
"20/04/19","12:50",0.0,16.8,66.3,1011.4,300.2,2.3,5.4,333.7,0.25,10.5,15.2,"12:49:36",1
"20/04/19","13:00",0.0,16.8,66.2,1011.4,287.6,1.8,3.7,343.6,0.28,10.5,15.3,"12:54:40",1
"20/04/19","13:10",0.0,17.1,65.9,1011.4,305.9,2.3,4.0,315.6,0.32,10.7,15.3,"13:00:24",1
"20/04/19","13:20",0.0,16.9,64.4,1011.2,285.3,2.1,4.5,317.1,0.23,10.2,15.2,"13:13:28",1
"20/04/19","13:30",0.0,16.4,65.5,1010.9,332.5,3.1,6.5,346.9,0.14,10.0,15.3,"13:28:48",1
"20/04/19","13:40",0.0,15.7,67.9,1010.9,350.4,3.4,6.6,341.0,0.13,9.8,15.3,"13:34:16",1
"20/04/19","13:50",0.0,15.8,68.9,1011.2,342.5,2.7,6.3,341.6,0.17,10.1,15.5,"13:46:24",1
"20/04/19","14:00",0.0,16.6,67.6,1010.4,335.6,2.8,5.0,333.2,0.33,10.6,15.5,"13:52:08",1
"20/04/19","14:10",0.0,16.8,65.1,1010.2,325.4,1.8,4.8,344.4,0.17,10.3,15.3,"14:07:52",1
"20/04/19","14:20",0.0,16.2,65.1,1010.0,340.4,2.7,6.7,339.8,0.15,9.7,15.4,"14:14:40",1
"20/04/19","14:30",0.0,16.5,65.6,1010.0,350.8,2.6,4.7,320.4,0.23,10.1,15.6,"14:21:04",1
"20/04/19","14:40",0.0,17.0,64.2,1010.2,337.7,2.1,4.0,341.7,0.22,10.2,15.6,"14:31:20",1
"20/04/19","14:50",0.0,17.0,63.5,1010.0,338.6,2.3,4.7,354.1,0.21,10.1,15.4,"14:40:40",1
"20/04/19","15:00",0.0,16.8,64.0,1010.0,343.6,2.3,5.0,346.0,0.17,10.0,15.5,"14:56:40",1
"20/04/19","15:10",0.0,16.5,65.5,1009.5,342.7,2.7,5.2,351.4,0.15,10.1,15.5,"15:07:28",1
"20/04/19","15:20",0.0,16.5,65.4,1009.7,346.2,1.8,4.5,345.0,0.15,10.0,15.6,"15:17:12",1
"20/04/19","15:30",0.0,16.4,65.4,1009.7,348.3,2.0,4.8,344.5,0.10,9.9,15.4,"15:20:02",1
"20/04/19","15:40",0.0,16.1,66.3,1009.7,343.6,2.6,4.8,335.9,0.13,9.9,15.5,"15:35:52",1
"20/04/19","15:50",0.0,16.0,65.9,1010.0,341.2,2.3,4.3,340.8,0.10,9.7,15.5,"15:41:12",1
"20/04/19","16:00",0.0,16.2,65.3,1009.3,343.4,2.0,3.7,340.1,0.12,9.7,15.5,"15:56:08",1
"20/04/19","16:10",0.0,16.3,64.5,1009.3,337.5,2.2,3.7,338.0,0.12,9.6,15.4,"16:04:08",1
"20/04/19","16:20",0.0,16.3,64.2,1009.0,336.3,2.2,3.7,347.3,0.10,9.6,15.6,"16:11:52",1
"20/04/19","16:30",0.0,16.9,64.9,1009.0,337.2,2.6,4.7,346.5,0.23,10.3,15.5,"16:28:56",1
"20/04/19","16:40",0.0,16.4,64.1,1009.0,338.5,3.2,5.9,343.3,0.10,9.6,15.6,"16:38:48",1
"20/04/19","16:50",0.0,15.9,65.9,1009.3,337.4,2.5,4.0,348.1,0.07,9.6,15.7,"16:45:12",1
"20/04/19","17:00",0.0,15.7,66.9,1009.3,338.3,2.5,3.4,350.1,0.07,9.6,15.7,"16:59:52",1
"20/04/19","17:10",0.0,15.6,67.4,1009.0,336.6,2.3,4.9,347.1,0.04,9.6,15.4,"17:09:48",1
"20/04/19","17:20",0.0,15.4,68.1,1008.8,323.5,2.5,4.0,325.1,0.03,9.6,15.6,"17:12:24",1
"20/04/19","17:30",0.0,15.2,68.6,1008.8,328.5,2.3,3.7,326.7,0.01,9.5,15.4,"17:28:32",1
"20/04/19","17:40",0.0,15.0,69.3,1009.0,327.5,2.7,4.0,307.0,0.01,9.5,15.2,"17:36:56",1
"20/04/19","17:50",0.0,14.8,70.0,1009.0,326.6,2.8,5.1,342.8,0.01,9.4,15.4,"17:41:36",1
"20/04/19","18:00",0.0,14.7,70.4,1008.6,319.8,1.8,2.7,332.8,0.00,9.4,15.4,"17:59:52",1
"20/04/19","18:10",0.0,14.6,70.9,1008.8,326.6,2.3,3.5,320.6,0.00,9.4,15.1,"18:06:48",1
"20/04/19","18:20",0.0,14.4,71.6,1009.0,327.6,2.3,3.4,330.5,0.00,9.4,15.1,"18:11:36",1
"20/04/19","18:30",0.0,14.2,72.4,1009.0,334.1,1.8,2.9,336.7,0.00,9.4,15.2,"18:21:36",1
"20/04/19","18:40",0.0,14.0,73.5,1008.6,332.0,1.6,2.5,336.9,0.00,9.4,15.1,"18:33:20",1
"20/04/19","18:50",0.0,13.7,74.4,1008.6,313.7,1.3,2.1,325.2,0.00,9.3,15.1,"18:45:44",1
"20/04/19","19:00",0.0,13.6,75.4,1009.0,300.7,1.5,2.0,314.3,0.00,9.4,14.8,"18:52:48",1
"20/04/19","19:10",0.0,13.4,76.7,1009.0,318.0,2.2,3.4,331.7,0.00,9.4,14.9,"19:02:40",1
"20/04/19","19:20",0.0,13.2,77.7,1008.8,322.2,1.8,3.4,340.3,0.00,9.4,15.0,"19:14:32",1
"20/04/19","19:30",0.0,13.0,78.5,1008.8,285.1,1.1,1.7,322.8,0.00,9.4,14.8,"19:20:08",1
"20/04/19","19:40",0.0,13.1,79.2,1009.0,265.9,1.1,1.7,244.5,0.00,9.6,14.8,"19:35:36",1
"20/04/19","19:50",0.0,13.1,79.4,1008.6,260.8,1.2,1.9,242.5,0.00,9.7,14.8,"19:40:48",1
"20/04/19","20:00",0.0,13.1,79.4,1008.8,312.7,0.7,1.4,327.7,0.00,9.7,15.0,"19:59:28",1
"20/04/19","20:10",0.0,13.0,79.6,1008.6,316.6,1.3,1.7,317.3,0.00,9.6,14.7,"20:06:24",1
"20/04/19","20:20",0.0,12.9,79.9,1008.6,321.0,1.2,1.9,332.5,0.00,9.6,14.7,"20:18:48",1
"20/04/19","20:30",0.0,12.8,80.3,1009.0,305.7,1.2,1.9,318.1,0.00,9.5,14.6,"20:23:52",1
"20/04/19","20:40",0.0,12.7,80.9,1009.5,311.7,1.1,1.8,334.1,0.00,9.5,14.6,"20:39:28",1
"20/04/19","20:50",0.0,12.6,81.6,1009.0,339.5,1.5,2.1,340.7,0.00,9.6,14.5,"20:46:56",1
"20/04/19","21:00",0.0,12.4,82.6,1009.0,331.3,1.3,2.4,330.2,0.00,9.6,14.5,"20:50:16",1
"20/04/19","21:10",0.0,12.4,83.3,1008.8,331.4,1.3,2.6,331.8,0.00,9.7,14.7,"21:08:16",1
"20/04/19","21:20",0.0,12.4,83.8,1009.3,324.9,1.1,2.0,339.3,0.00,9.8,14.4,"21:17:04",1
"20/04/19","21:30",0.0,12.4,84.0,1009.3,312.3,1.2,1.7,323.6,0.00,9.8,14.3,"21:28:56",1
"20/04/19","21:40",0.0,12.3,84.3,1009.0,299.0,1.3,2.0,310.9,0.00,9.8,14.3,"21:34:24",1
"20/04/19","21:50",0.0,12.2,84.5,1009.3,315.5,1.3,1.7,322.4,0.00,9.7,14.3,"21:45:12",1
"20/04/19","22:00",0.0,12.2,84.7,1009.3,326.3,1.3,1.7,335.6,0.00,9.7,14.3,"21:54:08",1
"20/04/19","22:10",0.0,12.2,85.0,1009.0,308.9,1.3,2.1,318.1,0.00,9.8,14.2,"22:04:48",1
"20/04/19","22:20",0.0,12.2,85.4,1009.3,302.6,1.5,2.1,314.7,0.00,9.9,14.4,"22:17:04",1
"20/04/19","22:30",0.0,12.0,85.6,1008.8,288.8,1.2,1.7,300.4,0.00,9.7,14.2,"22:22:10",1
"20/04/19","22:40",0.0,12.0,86.0,1008.8,284.3,1.1,1.6,270.6,0.00,9.8,14.2,"22:38:58",1
"20/04/19","22:50",0.2,11.9,86.4,1008.6,309.5,1.5,1.8,326.3,0.00,9.7,14.2,"22:48:08",1
"20/04/19","23:00",0.0,11.9,86.8,1008.3,328.1,1.1,1.8,336.9,0.00,9.8,14.3,"22:59:04",1
"20/04/19","23:10",0.0,11.8,87.3,1007.8,328.5,1.0,1.4,323.4,0.00,9.8,14.2,"23:09:04",1
"20/04/19","23:20",0.2,11.7,87.7,1007.4,288.6,1.0,1.3,301.5,0.00,9.8,14.2,"23:16:40",1
"20/04/19","23:30",0.0,11.6,88.2,1007.1,296.6,1.1,1.3,267.2,0.00,9.8,14.0,"23:28:56",1
"20/04/19","23:40",0.2,11.6,88.6,1006.7,284.0,1.3,2.4,313.7,0.00,9.8,13.9,"23:37:44",1
"20/04/19","23:50",0.0,11.6,89.2,1006.4,274.4,1.3,1.8,288.2,0.00,9.9,14.0,"23:45:36",1
"20/04/19","24:00",0.0,11.6,89.8,1006.0,296.7,1.2,1.7,279.0,0.00,10.0,14.2,"23:54:48",1
